Location: Unspecified
(54.1780°N, 0.0000°E)
Time: 04:31:26
(UTC+00:00)

S-56A Canister/Altair - Pass Details

Date: 24 June 2019
Orbit: 632 x 2500 km, 38.9° (Epoch: 22 July)

Event Time Altitude Azimuth Distance (km) Brightness Sun altitude
Rises 14:29:39 0° 211° (SSW) 5,439 12.4 48.8°
Reaches altitude 10° 14:35:04 10° 196° (SSW) 4,068 11.8 48.1°
Maximum altitude 14:41:06 17° 160° (SSE) 3,038 10.9 47.4°
Drops below altitude 10° 14:45:59 10° 122° (ESE) 3,174 10.6 46.7°
Sets 14:49:27 0° 103° (ESE) 3,836 10.8 46.3°
